Change the Weather History Date:

Monday, October 7, 2013

  Actual Average Record
Temperature  
Mean Temperature 56 °F -  
Max Temperature 66 °F 62 °F 87 °F (2007)
Min Temperature 43 °F 44 °F 24 °F (2001)
Degree Days  
Heating Degree Days 9    
Growing Degree Days 6 (Base 50)    
Moisture  
Dew Point 44 °F    
Average Humidity 73    
Maximum Humidity 97    
Minimum Humidity 40    
Precipitation  
Precipitation 0.00 in - - ()
Sea Level Pressure  
Sea Level Pressure 29.89 in    
Wind  
Wind Speed 9 mph (West)    
Max Wind Speed 15 mph    
Max Gust Speed 24 mph    
Visibility 10 miles    
Events Rain    
Averages and records for this station are not official NWS values.
T = Trace of Precipitation, MM = Missing Value Source: NWS Daily Summary

Daily Weather History Graph

Daily Weather History Graph

Search for Another Location

Airport or City:

Trip Planner

Search our weather history database for the weather conditions in past years. The results will help you decide how hot, cold, wet, or windy it might be!

Date:

Astronomy

Oct. 07, 2013 Rise Set
Actual Time 6:55 AM CDT 6:22 PM CDT
Civil Twilight 6:27 AM CDT 6:50 PM CDT
Nautical Twilight 5:55 AM CDT 7:23 PM CDT
Astronomical Twilight 5:22 AM CDT 7:55 PM CDT
Moon 9:49 AM CDT (10/7) 8:02 PM CDT (10/7)
Length of Visible Light 12h 22m
Length of Day
11h 26m
Waxing Crescent, 9% of the Moon is Illuminated
Oct 7
Waxing Crescent
Oct 11
First Quarter
Oct 18
Full
Oct 26
Last Quarter
Nov 3
New

Hourly Weather History & Observations

Time (CDT) Temp. Windchill Dew Point Humidity Pressure Visibility Wind Dir Wind Speed Gust Speed Precip Events Conditions
12:53 AM 46.0 °F 42.5 °F 41.0 °F 83% 29.74 in 10.0 mi WSW 6.9 mph - N/A   Overcast
1:53 AM 46.0 °F 41.0 °F 42.1 °F 86% 29.75 in 10.0 mi WSW 10.4 mph - N/A   Overcast
2:53 AM 46.0 °F 40.6 °F 42.1 °F 86% 29.75 in 10.0 mi WSW 11.5 mph - 0.00 in Rain Light Rain
3:53 AM 46.0 °F 41.0 °F 42.1 °F 86% 29.75 in 10.0 mi WSW 10.4 mph - 0.00 in   Overcast
4:53 AM 46.0 °F 40.6 °F 42.1 °F 86% 29.76 in 10.0 mi WSW 11.5 mph - N/A   Mostly Cloudy
5:53 AM 46.9 °F - 42.1 °F 83% 29.78 in 10.0 mi West 11.5 mph - N/A   Overcast
6:31 AM 46.4 °F 41.1 °F 42.8 °F 87% 29.78 in 10.0 mi West 11.5 mph - 0.00 in   Overcast
6:53 AM 48.0 °F - 43.0 °F 83% 29.80 in 10.0 mi West 11.5 mph - 0.00 in   Overcast
7:21 AM 48.2 °F - 44.6 °F 87% 29.80 in 10.0 mi West 12.7 mph - N/A   Overcast
7:28 AM 48.2 °F - 44.6 °F 87% 29.80 in 10.0 mi West 15.0 mph 18.4 mph N/A   Overcast
7:53 AM 48.9 °F - 46.0 °F 90% 29.83 in 4.0 mi West 11.5 mph 18.4 mph N/A   Overcast
8:44 AM 50.0 °F - 46.4 °F 87% 29.84 in 9.0 mi West 12.7 mph - N/A   Overcast
8:53 AM 51.1 °F - 46.9 °F 86% 29.85 in 10.0 mi WNW 8.1 mph 17.3 mph N/A   Overcast
9:08 AM 51.8 °F - 46.4 °F 82% 29.85 in 10.0 mi WNW 8.1 mph - N/A   Overcast
9:28 AM 53.6 °F - 44.6 °F 72% 29.86 in 10.0 mi NW 11.5 mph 20.7 mph N/A   Mostly Cloudy
9:53 AM 55.0 °F - 44.1 °F 67% 29.88 in 10.0 mi WNW 12.7 mph - N/A   Mostly Cloudy
10:00 AM 55.4 °F - 44.6 °F 67% 29.88 in 10.0 mi WNW 11.5 mph - N/A   Partly Cloudy
10:53 AM 57.9 °F - 44.1 °F 60% 29.91 in 10.0 mi WNW 10.4 mph 19.6 mph N/A   Clear
11:53 AM 60.1 °F - 43.0 °F 53% 29.93 in 10.0 mi West 13.8 mph 19.6 mph N/A   Clear
12:53 PM 63.0 °F - 43.0 °F 48% 29.94 in 10.0 mi WNW 12.7 mph - N/A   Partly Cloudy
1:53 PM 64.0 °F - 43.0 °F 46% 29.94 in 10.0 mi West 15.0 mph 24.2 mph N/A   Clear
2:53 PM 64.9 °F - 41.0 °F 42% 29.96 in 10.0 mi WNW 12.7 mph - N/A   Scattered Clouds
3:53 PM 66.0 °F - 41.0 °F 40% 29.96 in 10.0 mi NW 10.4 mph - N/A   Scattered Clouds
4:53 PM 66.0 °F - 43.0 °F 43% 29.97 in 10.0 mi West 10.4 mph - N/A   Partly Cloudy
5:53 PM 62.1 °F - 44.1 °F 52% 29.98 in 10.0 mi West 4.6 mph - N/A   Partly Cloudy
6:53 PM 57.0 °F - 44.1 °F 62% 30.01 in 10.0 mi Calm Calm - N/A   Clear
7:53 PM 52.0 °F - 44.1 °F 74% 30.03 in 10.0 mi Calm Calm - N/A   Clear
8:53 PM 50.0 °F - 44.1 °F 80% 30.06 in 10.0 mi Calm Calm - N/A   Clear
9:53 PM 51.1 °F - 46.0 °F 83% 30.07 in 10.0 mi Calm Calm - N/A   Clear
10:53 PM 46.0 °F - 43.0 °F 89% 30.09 in 10.0 mi Calm Calm - N/A   Clear
11:53 PM 43.0 °F - 42.1 °F 97% 30.10 in 9.0 mi Calm Calm - N/A   Clear